Weather Roundup
Issued by NWS Springfield, MO

Home | Current Version | Previous Version | Text Only | Print | Product List | Glossary On
Versions: 1 2 3 4 5 6 7 8 9 10 11 12 13 14 15 16 17 18 19 20 21 22 23 24 25 26 27 28 29 30 31 32 33 34 35 36 37 38 39 40 41 42 43 44 45 46 47 48 49 50
000
NZUS99 KSGF 171759
HRRSGF

HOURLY WEATHER
NATIONAL WEATHER SERVICE SPRINGFIELD MO
100 PM CDT FRI APR 17 2015

......SGF CWA......

CITY           SKY/WX    TMP DP  RH WIND       PRES   REMARKS
SPRINGFIELD    CLOUDY    71  57  61 CALM      30.07S
6HR MIN TEMP:  58; 6HR MAX TEMP:  71;

JOPLIN         CLOUDY    63  62  97 NE3       30.05F
6HR MIN TEMP:  57; 6HR MAX TEMP:  66; 6HR PCP:  0.17;

WEST PLAINS    MOSUNNY   73  56  54 VRB7      30.07F
6HR MIN TEMP:  54; 6HR MAX TEMP:  74;

ROLLA          MOSUNNY   73  55  53 E7        30.05F
6HR MIN TEMP:  56; 6HR MAX TEMP:  75;

OSAGE BEACH    CLOUDY    75  54  46 S6        30.06F
BRANSON        TSTM      63  61  94 NE7       30.09S

......SURROUNDING SGF CWA......

CITY           SKY/WX    TMP DP  RH WIND       PRES   REMARKS
CHANUTE        CLOUDY    68  61  78 SE10      30.02F
PARSONS        PTSUNNY   68  62  81 VRB7      30.01F
COFFEYVILLE    PTSUNNY   70  62  76 E13       29.99F
EMPORIA        PTSUNNY   65  57  75 SE7       30.00S
SILOAM SPRINGS PTSUNNY   72  59  64 NE3       30.04F
HARRISON AR    CLOUDY    69  61  75 VRB6      30.07F
NEAR YELLVILLE PTSUNNY   75 N/A N/A CALM      30.03F

......KANSAS AND MISSOURI......

CITY           SKY/WX    TMP DP  RH WIND       PRES   REMARKS
KANSAS CTY INT CLOUDY    76  58  53 SE10      30.04F
DOWNTOWN KC    CLOUDY    78  57  48 S8        30.02F
COLUMBIA       PTSUNNY   75  56  51 SE6       30.06F
SEDALIA        MOSUNNY   77  56  48 E3        30.06F
ST JOSEPH      CLOUDY    75  56  51 SE9       30.04F
ST LOUIS       MOSUNNY   77  56  48 E10       30.07F
SPIRIT OF STL  PTSUNNY   76  56  49 SE7       30.05F
KIRKSVILLE     MOSUNNY   77  57  50 SE8       30.06F
WICHITA        PTSUNNY   70  58  65 SE7       29.99S
TOPEKA         CLOUDY    69  61  75 VRB3      30.02F HAZE
OLATHE         CLOUDY    72  60  66 S13       30.04F

......TENNESSEE......

CITY           SKY/WX    TMP DP  RH WIND       PRES   REMARKS
MEMPHIS        CLOUDY    69  63  81 S6        30.05F
NASHVILLE      CLOUDY    66  59  78 E3        30.10F

......ARKANSAS.......

CITY           SKY/WX    TMP DP  RH WIND       PRES   REMARKS
FAYETTEVILLE   PTSUNNY   74  60  61 VRB5      30.03F
FT SMITH       SUNNY     77  60  55 NW6       30.01F
LITTLE ROCK    MOSUNNY   77  64  64 E6        30.03F

......OKLAHOMA.......

CITY           SKY/WX    TMP DP  RH WIND       PRES   REMARKS
TULSA          CLOUDY    71  60  68 E12       29.97F
PONCA CITY     CLOUDY    71  59  65 E12       29.99F
MCALESTER      PTSUNNY   74  59  59 N5        30.01F
OKLAHOMA CITY  PTSUNNY   70  55  59 SE6       29.99F

......IOWA............

CITY           SKY/WX    TMP DP  RH WIND       PRES   REMARKS
DES MOINES     MOSUNNY   76  49  38 VRB5      30.07F
QUAD CITIES    SUNNY     78  47  33 VRB3      30.05F

......ILLINOIS........

CITY           SKY/WX    TMP DP  RH WIND       PRES   REMARKS
QUINCY         PTSUNNY   75  53  46 SE8       30.05F
CHICAGO        MOSUNNY   75  45  34 VRB6      30.05F



USA.gov is the U.S. government's official web portal to all federal, state and local government web resources and services.